Regional Weather Roundup
Issued by NWS

Home | Current Version | Previous Version | Graphics & Text | Print | Product List | Glossary On
Versions: 1 2 3 4 5 6 7 8 9 10 11 12 13 14 15 16 17 18 19 20 21 22 23 24 25 26 27 28 29 30 31 32 33 34 35 36 37 38 39 40 41 42 43 44 45 46 47 48 49 50
000
ASUS43 KBIS 032010
RWRND

NORTH DAKOTA REGIONAL WEATHER ROUNDUP
NATIONAL WEATHER SERVICE BISMARCK ND
300 PM CDT THU SEP 03 2015

NOTE: "FAIR" INDICATES FEW OR NO CLOUDS BELOW 12,000 FEET WITH NO
SIGNIFICANT WEATHER AND/OR OBSTRUCTIONS TO VISIBILITY.


NDZ001>003-009>011-017-032100-
NORTHWEST NORTH DAKOTA

CITY           SKY/WX    TMP DP  RH WIND       PRES   REMARKS
WILLISTON      MOSUNNY   87  50  27 N21       29.72R
MINOT          FAIR      92  62  36 SW12      29.65R HX  92
MINOT AFB      SUNNY     93  66  40 SW10      29.64R HX  95
$$

NDZ018>021-031>035-040>046-032100-
SOUTHWEST NORTH DAKOTA

CITY           SKY/WX    TMP DP  RH WIND       PRES   REMARKS
BISMARCK       PTSUNNY   97  62  31 S15       29.66F HX  98
DICKINSON      MOSUNNY   89  53  29 N10G20    29.71S
GARRISON         N/A     95  59  30 SW10G20   29.66R HX  94
HETTINGER ARPT SUNNY     92  45  19 W12       29.74F
$$

NDZ004>008-012>016-024-026-027-054-032100-
NORTHEAST NORTH DAKOTA

CITY           SKY/WX    TMP DP  RH WIND       PRES   REMARKS
GRAND FORKS    MOSUNNY   91  71  51 S21G35    29.70F HX  97
GRND FRKS AFB  SUNNY     91  72  53 S23G31    29.70F HX  98
DEVILS LAKE    SUNNY     90  70  51 SE16      29.67F HX  95
$$

NDZ022-023-025-028>030-036>039-047>053-032100-
SOUTHEAST NORTH DAKOTA

CITY           SKY/WX    TMP DP  RH WIND       PRES   REMARKS
FARGO          SUNNY     92  71  50 S18G29    29.75F HX  98
JAMESTOWN      SUNNY     94  67  41 S16G28    29.71F HX  97
$$




USA.gov is the U.S. government's official web portal to all federal, state and local government web resources and services.